Location: Austin
(30.3000°N, 97.7500°W)
Time: 10:47:10
(UTC-05:00)

CZ-3 R/B - Pass Details

Date: 03 April 2024
Orbit: 491 x 10077 km, 28.3° (Epoch: 21 April)

Event Time Altitude Azimuth Distance (km) Brightness Sun altitude
Exits shadow 05:24:33 13° 213° (SSW) 7,684 5.6 -24.3°
Maximum altitude 05:39:46 27° 168° (SSE) 3,601 4.3 -21.2°
Drops below altitude 10° 05:46:55 10° 112° (ESE) 3,275 4.9 -19.8°
Sets 05:49:17 0° 98° (E) 3,744 5.7 -19.3°
